N6BK KHFD-KBID

Flight info

Callsign N6BK
Flight time N/A
Altitude 2500
Route DCT
Aircraft C172/L-VGD/C

Departure

Time 2026-04-21 18:55
Airport Hartford Brainard Airport (KHFD)

Arrival

Time N/A
Airport Block Island State Airport (KBID)
Time Latitude Longitude Altitude Speed Heading
2026-04-21 18:55 41.77756 -72.63581 2667 ft 95 kts 139°
2026-04-21 18:55 41.77118 -72.62736 2739 ft 101 kts 138°
2026-04-21 18:55 41.76655 -72.62007 2725 ft 104 kts 137°
2026-04-21 18:55 41.76175 -72.61291 2738 ft 102 kts 138°
2026-04-21 18:56 41.75684 -72.60597 2660 ft 103 kts 137°
2026-04-21 18:56 41.75199 -72.59881 2633 ft 103 kts 139°
2026-04-21 18:56 41.74710 -72.59196 2599 ft 102 kts 138°
2026-04-21 18:56 41.74216 -72.58515 2552 ft 101 kts 138°
2026-04-21 18:57 41.73735 -72.57833 2548 ft 100 kts 136°
2026-04-21 18:57 41.73273 -72.57157 2526 ft 98 kts 138°
2026-04-21 18:57 41.72836 -72.56448 2514 ft 100 kts 136°
2026-04-21 18:57 41.72405 -72.55727 2530 ft 99 kts 136°
2026-04-21 18:58 41.71971 -72.55001 2512 ft 101 kts 134°
2026-04-21 18:58 41.71546 -72.54261 2515 ft 101 kts 131°
2026-04-21 18:58 41.71139 -72.53496 2493 ft 100 kts 132°
2026-04-21 18:58 41.70754 -72.52726 2476 ft 100 kts 129°
2026-04-21 18:59 41.70413 -72.51912 2482 ft 100 kts 125°
2026-04-21 18:59 41.70070 -72.51108 2470 ft 101 kts 124°
2026-04-21 18:59 41.69736 -72.50284 2451 ft 100 kts 122°
2026-04-21 18:59 41.69407 -72.49468 2408 ft 100 kts 126°
2026-04-21 19:00 41.69047 -72.48672 2414 ft 100 kts 125°
2026-04-21 19:00 41.68685 -72.47883 2451 ft 100 kts 127°
2026-04-21 19:00 41.68330 -72.47078 2471 ft 101 kts 124°
2026-04-21 19:00 41.67968 -72.46280 2504 ft 99 kts 128°
2026-04-21 19:01 41.67604 -72.45492 2528 ft 100 kts 128°
2026-04-21 19:01 41.67247 -72.44704 2577 ft 99 kts 126°
2026-04-21 19:01 41.66895 -72.43906 2593 ft 100 kts 128°
2026-04-21 19:01 41.66545 -72.43107 2652 ft 100 kts 127°
2026-04-21 19:02 41.66233 -72.42394 2677 ft 100 kts 127°
2026-04-21 19:02 41.65950 -72.41703 2695 ft 101 kts 127°